Terug naar catalogus

IRIDIUM 33 DEB

LostPO
NORAD 39779·DEBRIS·🇺🇸 United States

Gelanceerd Sep 14, 1997 vanaf Baikonur Cosmodrome

Loading…

Volgende Passages (komende 24 uur)

TLE

VerouderdSource: Space-Track

Epoch: Dec 2, 2023, 07:03 UTC

1 39779U 97051AAL 23336.29442425  .00032656  00000-0  80115-2 0  9995
2 39779  86.2969 332.7365 0047309 175.0475 247.0274 14.51541826603224

Volg IRIDIUM 33 DEB in realtime met AllMySat

Download on the App Store